Fort Polk, LA

9:28 AM CDT on October 19, 2019 (GMT -0500)
Fort Polk

Weather History for KAQV - August, 2019

Change the Weather History Date:

Friday, August 23, 2019

  Actual Average (WUND) Record (WUND)
Temperature  
Mean Temperature 82 °F -  
Max Temperature 93 °F - - (-1)
Min Temperature 73 °F - - (-1)
Cooling Degree Days 16    
Growing Degree Days 32 (Base 50)    
Moisture  
Dew Point 73 °F    
Average Humidity 85    
Maximum Humidity 97    
Minimum Humidity 57    
Precipitation  
Precipitation 0.04 in - - ()
Sea Level Pressure  
Sea Level Pressure 29.93 in    
Wind  
Wind Speed 1 mph (NE)    
Max Wind Speed 7 mph    
Max Gust Speed -    
Visibility 8 miles    
Events Thunderstorm    
Averages and records for this station are not official NWS values.
T = Trace of Precipitation, MM = Missing Value Source: NWS Daily Summary

Daily Weather History Graph

Daily Weather History Graph

Search for Another Location

Airport or City:

Astronomy

Aug. 23, 2019 Rise Set
Actual Time 6:43 AM CDT 7:47 PM CDT
Civil Twilight 6:18 AM CDT 8:12 PM CDT
Nautical Twilight 5:48 AM CDT 8:42 PM CDT
Astronomical Twilight 5:17 AM CDT 9:13 PM CDT
Moon 12:05 AM CDT (8/23) 1:52 PM CDT (8/23)
Length of Visible Light 13h 54m
Length of Day
13h 04m
Waning Gibbous, 49% of the Moon is Illuminated
Aug 23
Waning Gibbous
Aug 30
New
Sep 5
First Quarter
Sep 13
Full
Sep 21
Last Quarter

Hourly Weather History & Observations

Time (CDT) Temp. Heat Index Dew Point Humidity Pressure Visibility Wind Dir Wind Speed Gust Speed Precip Events Conditions
12:56 AM 75.0 °F - 73.0 °F 94% 29.94 in 10.0 mi Calm Calm - N/A   Clear
1:56 AM 73.9 °F - 72.0 °F 93% 29.93 in 10.0 mi Calm Calm - N/A   Clear
2:56 AM 73.0 °F - 72.0 °F 96% 29.91 in 8.0 mi Calm Calm - N/A   Clear
3:56 AM 73.9 °F - 72.0 °F 93% 29.91 in 9.0 mi Calm Calm - N/A   Clear
4:56 AM 73.0 °F - 72.0 °F 96% 29.92 in 6.0 mi Calm Calm - N/A   Clear
5:35 AM 73.9 °F - 72.0 °F 93% 29.95 in 6.0 mi Calm Calm - N/A   Partly Cloudy
5:56 AM 73.9 °F - 72.0 °F 93% 29.95 in 4.0 mi Calm Calm - N/A   Mostly Cloudy
6:51 AM 73.4 °F - 71.6 °F 94% 29.95 in 4.0 mi Calm Calm - N/A   Partly Cloudy
7:15 AM 73.9 °F - 72.0 °F 93% 29.96 in 2.5 mi Calm Calm - N/A   Mostly Cloudy
7:28 AM 73.9 °F - 73.0 °F 97% 29.96 in 1.2 mi Calm Calm - N/A   Overcast
7:46 AM 75.0 °F - 73.0 °F 94% 29.97 in 3.0 mi Calm Calm - N/A   Overcast
7:56 AM 75.0 °F - 73.0 °F 94% 29.96 in 4.0 mi Calm Calm - N/A   Overcast
8:56 AM 78.1 °F - 75.0 °F 90% 29.97 in 10.0 mi Variable 3.5 mph - N/A   Clear
9:03 AM 78.1 °F - 75.0 °F 90% 29.98 in 10.0 mi Variable 4.6 mph - N/A   Partly Cloudy
9:56 AM 84.9 °F 92.1 °F 73.9 °F 69% 29.96 in 10.0 mi Calm Calm - N/A   Partly Cloudy
10:56 AM 88.0 °F 95.6 °F 73.0 °F 61% 29.96 in 10.0 mi Variable 3.5 mph - N/A   Scattered Clouds
11:56 AM 90.0 °F 97.9 °F 73.0 °F 57% 29.94 in 10.0 mi Variable 5.8 mph - N/A   Scattered Clouds
1:56 PM 82.0 °F 89.4 °F 75.9 °F 82% 29.94 in 10.0 mi Variable 3.5 mph - 0.04 in Thunderstorm Thunderstorm
2:56 PM 81.0 °F 86.7 °F 75.0 °F 82% 29.93 in 10.0 mi Variable 4.6 mph - N/A   Clear
3:33 PM 82.9 °F 90.2 °F 75.0 °F 77% 29.92 in 10.0 mi Calm Calm - N/A Thunderstorm Thunderstorm
3:56 PM 84.0 °F 91.9 °F 75.0 °F 74% 29.91 in 10.0 mi Calm Calm - N/A Thunderstorm Thunderstorm
4:03 PM 84.9 °F 93.3 °F 75.0 °F 72% 29.92 in 10.0 mi North 3.5 mph - N/A   Partly Cloudy
4:39 PM 84.9 °F 94.1 °F 75.9 °F 74% 29.92 in 10.0 mi North 3.5 mph - N/A Thunderstorm Thunderstorm
4:56 PM 86.0 °F 96.9 °F 77.0 °F 74% 29.92 in 10.0 mi ENE 4.6 mph - N/A   Scattered Clouds
5:45 PM 82.9 °F 88.8 °F 73.0 °F 72% 29.93 in 10.0 mi Variable 6.9 mph - N/A Thunderstorm Thunderstorm
5:56 PM 81.0 °F 85.8 °F 73.0 °F 77% 29.92 in 10.0 mi ENE 6.9 mph - N/A   Partly Cloudy
6:06 PM 81.0 °F 85.8 °F 73.0 °F 77% 29.92 in 10.0 mi Variable 3.5 mph - N/A Thunderstorm Thunderstorm
6:56 PM 79.0 °F - 73.9 °F 84% 29.91 in 10.0 mi Calm Calm - N/A Thunderstorm Thunderstorm
7:05 PM 79.0 °F - 73.0 °F 82% 29.92 in 10.0 mi Calm Calm - N/A   Clear
7:56 PM 78.1 °F - 73.0 °F 84% 29.91 in 10.0 mi SSE 4.6 mph - N/A   Scattered Clouds
8:17 PM 77.0 °F - 73.0 °F 88% 29.92 in 10.0 mi Variable 3.5 mph - N/A Thunderstorm Thunderstorm
8:33 PM 77.0 °F - 73.0 °F 88% 29.92 in 10.0 mi Variable 3.5 mph - N/A   Partly Cloudy
9:56 PM 73.9 °F - 72.0 °F 93% 29.92 in 10.0 mi Calm Calm - N/A   Clear
10:56 PM 73.9 °F - 72.0 °F 93% 29.93 in 10.0 mi Calm Calm - N/A   Partly Cloudy
11:56 PM 73.0 °F - 71.1 °F 93% 29.92 in 10.0 mi Calm Calm - N/A   Clear